Regional Weather Roundup
Issued by NWS

Home | Current Version | Previous Version | Graphics & Text | Print | Product List | Glossary On
Versions: 1 2 3 4 5 6 7 8 9 10 11 12 13 14 15 16 17 18 19 20 21 22 23 24 25 26 27 28 29 30 31 32 33 34 35 36 37 38 39 40 41 42 43 44 45 46 47 48 49 50
000
ASUS43 KLMK 181802
RWRKY
KENTUCKY REGIONAL WEATHER ROUNDUP
NATIONAL WEATHER SERVICE LOUISVILLE KY
200 PM EDT FRI APR 18 2014

NOTE "FAIR" INDICATES FEW OR NO CLOUDS BELOW 12,000 FEET
WITH NO SIGNIFICANT WEATHER AND/OR OBSTRUCTIONS TO VISIBILITY.

KYZ001>023-026-027-061>063-070>075-181900-
WESTERN AND SOUTH CENTRAL KENTUCKY

CITY           SKY/WX    TMP DP  RH WIND       PRES   REMARKS
PADUCAH        SUNNY     72  41  32 CALM      30.25F
HENDERSON      SUNNY     57  43  58 NE3       30.27F
OWENSBORO      PTSUNNY   70  42  36 VRB6      30.28F
HOPKINSVILLE   MOSUNNY   68  50  52 VRB6      30.26F
BOWLING GREEN  MOSUNNY   68  46  45 VRB5      30.27F
GLASGOW        NOT AVBL
$$

KYZ024-025-028>034-038-045-046-053-181900-
NORTH CENTRAL KENTUCKY

CITY           SKY/WX    TMP DP  RH WIND       PRES   REMARKS
LOUISVILLE/SDF PTSUNNY   72  38  29 W5        30.27F
LOUISVILLE/LOU PTSUNNY   71  38  29 CALM      30.28F
FORT KNOX      PTSUNNY   67  41  37 E6        30.26F
$$

KYZ035>037-039>044-047>052-055>060-089>105-181900-
NORTHEAST KENTUCKY

CITY           SKY/WX    TMP DP  RH WIND       PRES   REMARKS
LEXINGTON      PTSUNNY   68  39  34 S6        30.29F
COVINGTON      PTSUNNY   67  34  29 N6        30.28F
FRANKFORT      PTSUNNY   67  39  35 VRB5      30.28F
$$

KYZ054-064>069-076>088-106>120-181900-
SOUTHEAST KENTUCKY

CITY           SKY/WX    TMP DP  RH WIND       PRES   REMARKS
JACKSON        CLOUDY    66  34  30 VRB3      30.30F
LONDON         CLOUDY    65  38  36 CALM      30.30F
SOMERSET       NOT AVBL
MIDDLESBORO    NOT AVBL
MONTICELLO     CLOUDY    66  44  45 VRB5      30.31F
$$




USA.gov is the U.S. government's official web portal to all federal, state and local government web resources and services.